Weather History for Sierra Vista, AZ

Change the Weather History Date:

Tuesday, January 8, 2013

  Actual Average Record
Temperature  
Mean Temperature 47 °F -  
Max Temperature 57 °F 59 °F 73 °F (2002)
Min Temperature 37 °F 37 °F 21 °F (1989)
Degree Days  
Heating Degree Days 18    
Moisture  
Dew Point 22 °F    
Average Humidity 41    
Maximum Humidity 60    
Minimum Humidity 25    
Precipitation  
Precipitation 0.00 in - - ()
Sea Level Pressure  
Sea Level Pressure 29.95 in    
Wind  
Wind Speed 5 mph (WSW)    
Max Wind Speed 14 mph    
Max Gust Speed -    
Visibility 10 miles    
Events      
Averages and records for this station are not official NWS values.
T = Trace of Precipitation, MM = Missing Value Source: NWS Daily Summary

Daily Weather History Graph

Daily Weather History Graph

Search for Another Location

Airport:

Trip Planner

Search our weather history database for the weather conditions in past years. The results will help you decide how hot, cold, wet, or windy it might be!

Date:

Astronomy

Jan. 08, 2013 Rise Set
Actual Time 7:21 AM MST 5:34 PM MST
Civil Twilight 6:55 AM MST 6:01 PM MST
Nautical Twilight 6:25 AM MST 6:31 PM MST
Astronomical Twilight 5:55 AM MST 7:01 PM MST
Moon 3:59 AM MST (1/8) 2:39 PM MST (1/8)
Length of Visible Light 11h 06m
Length of Day
10h 13m
Waning Crescent, 13% of the Moon is Illuminated
Jan 8
Waning Crescent
Jan 11
New
Jan 18
First Quarter
Jan 26
Full
Feb 3
Last Quarter

Hourly Weather History & Observations

Time (MST) Temp. Windchill Dew Point Humidity Pressure Visibility Wind Dir Wind Speed Gust Speed Precip Events Conditions
12:55 AM 37.4 °F - 23.0 °F 56% 29.86 in 10.0 mi Calm Calm - N/A   Overcast
1:55 AM 39.2 °F 35.0 °F 24.8 °F 56% 29.87 in 10.0 mi Variable 5.8 mph - N/A   Overcast
2:55 AM 41.0 °F 37.1 °F 24.8 °F 53% 29.85 in 10.0 mi Variable 5.8 mph - N/A   Overcast
3:55 AM 39.2 °F 33.0 °F 24.8 °F 56% 29.87 in 10.0 mi South 9.2 mph - N/A   Mostly Cloudy
4:55 AM 39.2 °F 37.0 °F 24.8 °F 56% 29.55 in 10.0 mi Variable 3.5 mph - N/A   Mostly Cloudy
5:55 AM 37.4 °F 31.4 °F 24.8 °F 60% 29.90 in 10.0 mi SW 8.1 mph - N/A   Mostly Cloudy
6:55 AM 39.2 °F 37.0 °F 24.8 °F 56% 29.93 in 10.0 mi SSW 3.5 mph - N/A   Partly Cloudy
7:55 AM 37.4 °F 32.1 °F 24.8 °F 60% 29.94 in 10.0 mi WSW 6.9 mph - N/A   Partly Cloudy
8:55 AM 41.0 °F 37.1 °F 26.6 °F 57% 29.99 in 10.0 mi WNW 5.8 mph - N/A   Partly Cloudy
9:55 AM 46.4 °F - 21.2 °F 37% 30.01 in 10.0 mi Calm Calm - N/A   Partly Cloudy
10:55 AM 50.0 °F - 24.8 °F 37% 29.99 in 10.0 mi Calm Calm - N/A   Partly Cloudy
11:55 AM 53.6 °F - 23.0 °F 30% 29.99 in 10.0 mi NE 4.6 mph - N/A   Clear
12:55 PM 55.4 °F - 23.0 °F 29% 29.96 in 10.0 mi NNW 5.8 mph - N/A   Clear
1:55 PM 55.4 °F - 21.2 °F 26% 29.94 in 10.0 mi Calm Calm - N/A   Partly Cloudy
2:55 PM 57.2 °F - 21.2 °F 25% 29.93 in 10.0 mi North 8.1 mph - N/A   Partly Cloudy
3:55 PM 55.4 °F - 21.2 °F 26% 29.96 in 10.0 mi NNE 6.9 mph - N/A   Clear
4:55 PM 53.6 °F - 19.4 °F 26% 29.98 in 10.0 mi NNE 10.4 mph - N/A   Partly Cloudy
5:55 PM 48.2 °F - 19.4 °F 32% 30.02 in 10.0 mi WSW 4.6 mph - N/A   Clear
6:55 PM 44.6 °F 40.2 °F 19.4 °F 37% 30.04 in 10.0 mi SW 8.1 mph - N/A   Clear
7:55 PM 44.6 °F 40.2 °F 17.6 °F 34% 30.04 in 10.0 mi SSW 8.1 mph - N/A   Clear
8:55 PM 42.8 °F 36.6 °F 17.6 °F 36% 30.06 in 10.0 mi WSW 11.5 mph - N/A   Clear
9:55 PM 42.8 °F 35.8 °F 17.6 °F 36% 30.06 in 10.0 mi WSW 13.8 mph - N/A   Clear
10:55 PM 44.6 °F 40.2 °F 17.6 °F 34% 30.07 in 10.0 mi WSW 8.1 mph - N/A   Clear
11:55 PM 41.0 °F - 17.6 °F 39% 30.07 in 10.0 mi Variable 1.2 mph - N/A   Clear